Date String (YYYY-MM-DD hh:mm:ss) UTC,Instrument flags,Ambient pressure (hPa),Sample flow (lpm),Bypass flow (lpm),Sample temperature (°C),Ambient temperature (°C),ASC tube jacket temperature (°C),LED temperature (°C),Box temperature (°C),Sample RH (%),Span deviation,Mass concentration (μg/m³),Mass concentration (μg/m³),Mass concentration (μg/m³)
DateTimeUTC,F1_M11,P_M11,Q1_M11,Q2_M11,T1_M11,T2_M11,T3_M11,T4_M11,T5_M11,U1_M11,ZSPAN_M11,X2_M11,X0_M11,X1_M11
2022-09-26 00:00:00,,0833.3,5.01,0.00,30.2,29.1,00.0,38.8,32.2,16.9,0000.0,0007.50,0014.50,0006.75
2022-09-26 00:01:00,,0833.2,4.99,0.00,30.2,27.8,00.0,38.8,32.1,16.7,0000.5,0007.50,0014.61,0006.72
2022-09-26 00:02:00,,0833.3,5.01,0.00,30.2,27.2,00.0,38.8,32.0,17.3,0000.1,0007.47,0014.36,0006.67
2022-09-26 00:03:00,,0833.2,5.00,0.00,30.1,27.3,00.0,38.7,32.0,17.3,0000.2,0007.43,0014.63,0006.64
2022-09-26 00:04:00,,0833.2,5.00,0.00,30.1,27.6,00.0,38.7,31.9,17.2,0000.2,0007.42,0015.97,0006.61
2022-09-26 00:05:00,,0833.2,5.01,0.00,30.1,27.9,00.0,38.7,31.9,17.1,-000.2,0007.36,0016.40,0006.58
2022-09-26 00:06:00,,0833.2,4.99,0.00,30.1,28.2,00.0,38.7,32.0,17.4,-000.3,0007.34,0016.13,0006.54
2022-09-26 00:07:00,,0833.1,5.02,0.00,30.1,28.4,00.0,38.7,32.0,17.4,-000.2,0007.35,0015.73,0006.52
2022-09-26 00:08:00,,0833.2,4.99,0.00,30.1,28.5,00.0,38.8,32.0,17.2,-000.1,0007.32,0015.34,0006.49
2022-09-26 00:09:00,,0833.2,5.00,0.00,30.1,28.7,00.0,38.8,32.0,17.3,-000.3,0007.30,0015.57,0006.48
2022-09-26 00:10:00,,0833.2,5.01,0.00,30.1,28.8,00.0,38.8,32.1,17.1,-000.2,0007.24,0015.40,0006.46
2022-09-26 00:11:00,,0833.2,5.00,0.00,30.2,29.0,00.0,38.8,32.1,17.3,-000.3,0007.21,0015.60,0006.45
2022-09-26 00:12:00,,0833.2,4.99,0.00,30.2,29.1,00.0,38.8,32.2,17.4,0000.0,0007.19,0015.20,0006.44
2022-09-26 00:13:00,,0833.2,5.01,0.00,30.2,29.2,00.0,38.9,32.2,17.5,-000.0,0007.17,0015.16,0006.43
2022-09-26 00:14:00,,0833.3,5.00,0.00,30.3,28.2,00.0,38.9,32.1,17.5,0000.2,0007.15,0014.55,0006.41
2022-09-26 00:15:00,,0833.3,5.00,0.00,30.2,26.6,00.0,38.8,31.9,17.3,0000.6,0007.17,0013.62,0006.41
2022-09-26 00:16:00,,0833.3,5.01,0.00,30.1,26.3,00.0,38.8,31.9,16.9,0001.1,0007.22,0014.06,0006.42
2022-09-26 00:17:00,,0833.3,4.99,0.00,30.0,26.5,00.0,38.7,31.7,16.7,0001.5,0007.26,0014.97,0006.43
2022-09-26 00:18:00,,0833.3,5.01,0.00,30.0,26.9,00.0,38.7,31.7,16.9,0001.9,0007.25,0015.67,0006.43
2022-09-26 00:19:00,,0833.3,5.00,0.00,29.9,27.3,00.0,38.7,31.7,17.0,0002.2,0007.25,0016.06,0006.43
2022-09-26 00:20:00,,0833.3,5.00,0.00,29.9,27.6,00.0,38.7,31.7,17.5,0002.6,0007.26,0015.86,0006.43
2022-09-26 00:21:00,,0833.3,5.00,0.00,29.9,27.9,00.0,38.7,31.7,17.7,0002.7,0007.24,0015.71,0006.41
2022-09-26 00:22:00,,0833.3,4.99,0.00,29.9,28.1,00.0,38.7,31.8,17.8,0002.6,0007.18,0016.32,0006.38
2022-09-26 00:23:00,,0833.3,5.01,0.00,29.9,28.3,00.0,38.7,31.9,18.0,0002.6,0007.12,0017.51,0006.34
2022-09-26 00:24:00,,0833.2,4.99,0.00,30.0,28.5,00.0,38.7,31.9,18.1,0002.7,0007.07,0018.02,0006.31
2022-09-26 00:25:00,,0833.2,5.02,0.00,30.0,28.6,00.0,38.7,32.0,18.2,0002.7,0007.07,0018.25,0006.29
2022-09-26 00:26:00,,0833.2,5.00,0.00,30.0,28.8,00.0,38.7,32.0,18.0,0002.7,0007.03,0018.72,0006.27
2022-09-26 00:27:00,,0833.3,4.99,0.00,30.1,28.9,00.0,38.7,32.0,18.0,0000.3,0006.95,0017.77,0006.23
2022-09-26 00:28:00,,0833.3,5.00,0.00,30.1,29.0,00.0,38.8,32.1,17.7,0000.9,0006.90,0017.52,0006.20
2022-09-26 00:29:00,,0833.3,5.01,0.00,30.1,29.1,00.0,38.8,32.2,18.0,0000.0,0006.87,0017.33,0006.16
2022-09-26 00:30:00,,0833.3,5.00,0.00,30.2,29.2,00.0,38.8,32.2,17.8,0001.4,0006.80,0017.02,0006.13
2022-09-26 00:31:00,,0833.3,5.00,0.00,30.2,29.0,00.0,38.8,32.2,17.6,0002.7,0006.77,0016.61,0006.10
2022-09-26 00:32:00,,0833.3,5.00,0.00,30.2,27.5,00.0,38.8,32.1,17.4,0002.7,0006.77,0016.22,0006.08
2022-09-26 00:33:00,,0833.3,5.01,0.00,30.1,26.3,00.0,38.7,31.9,17.6,0003.0,0006.81,0015.27,0006.08
2022-09-26 00:34:00,,0833.3,5.00,0.00,30.1,26.3,00.0,38.7,31.8,17.9,0003.0,0006.87,0014.00,0006.10
2022-09-26 00:35:00,,0833.3,5.00,0.00,30.0,26.6,00.0,38.7,31.7,18.1,0003.0,0006.90,0013.42,0006.10
2022-09-26 00:36:00,,0833.3,5.00,0.00,29.9,27.0,00.0,38.6,31.6,18.0,0002.7,0006.93,0013.18,0006.11
2022-09-26 00:37:00,,0833.3,5.01,0.00,29.9,27.3,00.0,38.6,31.6,18.2,0002.2,0006.93,0012.46,0006.11
2022-09-26 00:38:00,,0833.3,5.00,0.00,29.9,27.6,00.0,38.6,31.6,18.2,0002.3,0006.96,0012.48,0006.11
2022-09-26 00:39:00,,0833.3,5.00,0.00,29.9,27.9,00.0,38.6,31.7,18.2,0002.3,0007.01,0012.63,0006.10
2022-09-26 00:40:00,,0833.3,5.00,0.00,29.9,28.1,00.0,38.6,31.8,18.0,0002.2,0007.04,0012.58,0006.11
2022-09-26 00:41:00,,0833.3,5.01,0.00,29.9,28.3,00.0,38.6,31.8,18.0,0001.4,0007.05,0012.87,0006.11
2022-09-26 00:42:00,,0833.3,4.99,0.00,29.9,28.5,00.0,38.6,31.9,18.0,0000.0,0007.03,0013.11,0006.12
2022-09-26 00:43:00,,0833.3,5.01,0.00,30.0,28.6,00.0,38.6,31.9,18.0,0000.0,0007.01,0013.68,0006.12
2022-09-26 00:44:00,,0833.3,4.99,0.00,30.0,28.7,00.0,38.7,31.9,17.9,0000.1,0006.99,0014.81,0006.12
2022-09-26 00:45:00,,0833.3,5.01,0.00,30.0,28.8,00.0,38.7,32.0,18.0,0001.7,0006.95,0015.12,0006.10
2022-09-26 00:46:00,,0833.3,5.00,0.00,30.0,28.9,00.0,38.7,32.1,17.7,0001.7,0006.93,0015.40,0006.09
2022-09-26 00:47:00,,0833.3,4.99,0.00,30.1,29.0,00.0,38.7,32.1,17.5,0001.2,0006.91,0015.84,0006.08
2022-09-26 00:48:00,,0833.2,5.00,0.00,30.1,29.1,00.0,38.7,32.1,17.7,0002.0,0006.89,0015.82,0006.07
2022-09-26 00:49:00,,0833.2,5.02,0.00,30.2,29.2,00.0,38.8,32.2,17.5,0002.5,0006.90,0015.81,0006.09
2022-09-26 00:50:00,,0833.2,5.00,0.00,30.2,28.5,00.0,38.8,32.1,17.0,0002.6,0006.84,0015.06,0006.10
2022-09-26 00:51:00,,0833.2,5.01,0.00,30.2,26.8,00.0,38.7,31.9,16.8,0002.6,0006.84,0014.65,0006.12
2022-09-26 00:52:00,,0833.2,4.99,0.00,30.1,26.1,00.0,38.7,31.8,16.7,0002.4,0006.86,0014.24,0006.13
2022-09-26 00:53:00,,0833.2,4.99,0.00,30.0,26.3,00.0,38.6,31.7,16.8,0002.2,0006.85,0013.79,0006.14
2022-09-26 00:54:00,,0833.2,4.99,0.00,29.9,26.6,00.0,38.6,31.5,16.9,0001.9,0006.87,0013.59,0006.15
2022-09-26 00:55:00,,0833.2,4.99,0.00,29.8,27.0,00.0,38.6,31.6,16.9,0001.3,0006.92,0014.00,0006.16
2022-09-26 00:56:00,,0833.2,5.01,0.00,29.8,27.4,00.0,38.6,31.6,17.0,0001.9,0006.91,0013.74,0006.16
2022-09-26 00:57:00,,0833.3,5.00,0.00,29.8,27.7,00.0,38.6,31.7,17.0,0002.1,0006.88,0013.24,0006.15
2022-09-26 00:58:00,,0833.3,4.99,0.00,29.8,27.9,00.0,38.6,31.7,17.0,0001.9,0006.83,0012.58,0006.14
2022-09-26 00:59:00,,0833.2,5.00,0.00,29.8,28.1,00.0,38.6,31.7,17.0,0001.6,0006.79,0012.40,0006.13
